Regional Weather Roundup
Issued by NWS

Home | Current Version | Previous Version | Graphics & Text | Print | Product List | Glossary On
Versions: 1 2 3 4 5 6 7 8 9 10 11 12 13 14 15 16 17 18 19 20 21 22 23 24 25 26 27 28 29 30 31 32 33 34 35 36 37 38 39 40 41 42 43 44 45 46 47 48 49 50
000
ASUS43 KDMX 021707
RWRIA

WEATHER ROUNDUP FOR IOWA
NATIONAL WEATHER SERVICE DES MOINES IA
1200 PM CDT TUE JUN 02 2015

NOTE: "FAIR" INDICATES FEW OR NO CLOUDS BELOW 12,000 FEET WITH NO
SIGNIFICANT WEATHER AND/OR OBSTRUCTIONS TO VISIBILITY.

* - THESE STATIONS ARE NOT NWS STATIONS...THUS NOT UNDER NWS
QUALITY CONTROL.  THEY ALSO DO NOT REPORT WEATHER SUCH
AS PRECIPITATION OR FOG.

IAZ001>003-012>014-020>022-031>034-043>046-021800-
   NORTHWEST IOWA

CITY           SKY/WX    TMP DP  RH WIND       PRES   REMARKS
CARROLL *      PTSUNNY   66  54  63 S22       30.03S
CHEROKEE *     MOSUNNY   70  57  64 S15G22    29.99S
DENISON *      SUNNY     68  57  68 S13       29.99F
LE MARS *      PTSUNNY   72  57  60 S20G26    29.97R
ORANGE CITY *  MOSUNNY   70  55  60 S14G21    29.98R
SHELDON *      SUNNY     73  54  49 S18G31    29.97R
SIOUX CITY     CLOUDY    71  56  58 S20G29    29.97F
SPENCER        SUNNY     71  56  58 SE22G29   30.00S
STORM LAKE *   SUNNY     68  54  60 S23G29    30.01
$$

IAZ055>058-069>071-079>083-090>094-021800-
   SOUTHWEST IOWA

CITY           SKY/WX    TMP DP  RH WIND       PRES   REMARKS
ATLANTIC *     SUNNY     68  54  60 S13G21    30.03R
AUDUBON *      SUNNY     64  55  72 S14G21    30.05R
CLARINDA *     MOSUNNY   68  55  64 S13G21    30.06S
COUNCIL BLFS * SUNNY     70  59  68 S18G24    30.00F
CRESTON *      CLOUDY    63  55  77 S16G22    30.06R
HARLAN  *      SUNNY     68  57  68 S15G25    30.05R
LAMONI         CLOUDY    66  54  65 SE14G21   30.07F
RED OAK *      SUNNY     70  55  60 S17       30.03S
SHENANDOAH *   SUNNY     70  55  60 SE16      30.01F
$$

IAZ047>049-059>061-072>074-084-021800-
   CENTRAL IOWA

CITY           SKY/WX    TMP DP  RH WIND       PRES   REMARKS
AMES           CLOUDY    65  55  70 S15G21    30.07S
ANKENY *       CLOUDY    64  55  72 SE14G21   30.07S
CHARITON *     CLOUDY    64  55  72 S15       30.08F
DES MOINES     CLOUDY    66  54  65 SE18      30.07F
GRINNELL*      PTSUNNY   66  55  68 SE15G21   30.10S
KNOXVILLE *    CLOUDY    64  54  68 S15       30.08S
MARSHALLTOWN   CLOUDY    65  54  67 S18       30.08F
PELLA *        CLOUDY    66  57  72 S8        30.10S
PERRY *        CLOUDY    63  54  72 SE15G23   30.06S
$$

IAZ004>006-015-016-023>025-035-036-021800-
   NORTH CENTRAL IOWA

CITY           SKY/WX    TMP DP  RH WIND       PRES   REMARKS
ALGONA *       SUNNY     68  55  64 S21G26    30.03S
CLARION *      MOSUNNY   70  52  52 S23G33    30.05S
ESTHERVILLE    MOSUNNY   66  55  67 S24G30    30.02R
FORT DODGE *   PTSUNNY   66  54  63 S13G22    30.05F
MASON CITY     PTSUNNY   69  55  60 S20G29    30.08S
FOREST CITY *  MOSUNNY   68  54  60 SE18G26   30.05S
IOWA FALLS *   CLOUDY    66  54  63 SE20G25   30.09S
$$

IAZ007>011-017>019-026>030-037>042-050>054-066-021800-
   NORTHEAST IOWA

CITY           SKY/WX    TMP DP  RH WIND       PRES   REMARKS
CEDAR RAPIDS   MOSUNNY   68  54  60 SE12G18   30.11F
CHARLES CITY * PTSUNNY   68  54  60 S16       30.09R
CLINTON *      MOSUNNY   66  48  52 CALM      30.16F
DECORAH *      MOSUNNY   66  52  59 S13G18    30.10S
DUBUQUE        PTSUNNY   66  51  58 SE6       30.14S
MONTICELLO *   PTSUNNY   68  52  56 CALM      30.12F
OELWEIN *      CLOUDY    68  54  60 S13G20    30.10F
WATERLOO       CLOUDY    68  54  60 S16       30.08F
$$

IAZ064-065-067-068-078-021800-
   EAST CENTRAL IOWA

CITY           SKY/WX    TMP DP  RH WIND       PRES   REMARKS
DAVENPORT      MOSUNNY   68  50  52 S6G16     30.14S
IOWA CITY      MOSUNNY   69  53  56 SE8       30.12F
MT. PLEASANT * MOSUNNY   68  52  56 SE7       30.12F
MUSCATINE *    MOSUNNY   70  52  52 E10       30.12F
QUAD CITIES    MOSUNNY   69  50  50 S3        30.12F
$$

IAZ062-063-075>077-085>089-095>099-021800-
   SOUTHEAST IOWA

CITY           SKY/WX    TMP DP  RH WIND       PRES   REMARKS
BURLINGTON     CLOUDY    67  53  61 S6        30.12F
FAIRFIELD *    CLOUDY    68  54  60 SE13      30.10F
FORT MADISON *   N/A     66  57  72 SE5       30.13F
KEOKUK *       CLOUDY    66  57  72 SE6       30.11F
OSKALOOSA *    CLOUDY    68  54  60 S13       30.10F
CENTERVILLE *  MOSUNNY   64  64 100 SE10      30.12S
OTTUMWA        PTSUNNY   67  55  65 MISG      30.08F
WASHINGTON *   SUNNY     70  50  49 SE12G20   30.12F
$$

ABBREVIATIONS USED IN REMARKS
   TC - TEMPERATURES IN CELSIUS
  WCI - WIND CHILL INDEX
   HX - HEAT INDEX
  VSB - VISIBILITY
$$



USA.gov is the U.S. government's official web portal to all federal, state and local government web resources and services.